Starlink 33788

operational
NORAD ID: 63589 Int'l Des: 2025-076 Owner: SPXS Country: US Constellation: starlink
LEOCIRCULAR

Über Starlink 33788

Beschreibung wird geladen...

Live-Position

3D-Globus wird geladen...

Nächste Überflüge

Höhenverlauf

Altitude vs Time

uPlot chart will show altitude changes over time

Zweizeiliger Elementsatz

1 63589U 25076W 25258.23132244 .00033593 00000-0 12233-2 0 9990
2 63589 43.0003 232.8164 0000424 226.3732 133.7084 15.27619209 24996
Epoch: 15. Sept. 2025 • Age: 18 hours

Aktueller Status

Höhe 495.9 km
Geschwindigkeit 7.62 km/s
Subsatellitenpunkt -43.05°S, 148.11°E
Startdatum 14. Apr. 2025
Alter 0.4 years
Typ internet

Technische Details

Klassifizierung Payload
Masse 575.00 kg
Trockenmasse 530.00 kg
Gesamtmasse 575.00 kg
Länge 0.30 m
Durchmesser 4.10 m
Spannweite 29.00 m
Form Box + pan
Hersteller SPXS
Bus-Typ Starlink V2MO
Phasenstatus In Orbit
Besitzer/Staat SPXS/US

Große Konstellationen

Loading constellations...